Find Local Weather

World > North America > United States > California

Oakland, California Regional Weather

Lat: 37.77N, Lon: 122.22W
Wx Zone: CAZ508
Feedback
Expires:201809191800;;890389
ASUS46 KSTO 191715
RWRCA 

NORTHERN AND CENTRAL CA REGIONAL WEATHER ROUNDUP
NATIONAL WEATHER SERVICE SACRAMENTO CA 
1000 AM PDT WED SEP 19 2018

NOTE: FAIR INDICATES FEW OR NO CLOUDS BELOW 12,000 FEET WITH NO
SIGNIFICANT WEATHER AND/OR OBSTRUCTIONS TO VISIBILITY.


CAZ006-505>513-191800-
BAY AREA
  
CITY           SKY/WX    TMP DP  RH WIND       PRES   REMARKS
SANTA ROSA     SUNNY     60  49  66 CALM      29.92S                  
SAN RAFAEL     N/A       55  MM  MM MISG
NAPA           MOSUNNY   59  53  80 CALM      29.93R                  
CONCORD        SUNNY     65  50  58 CALM      29.92R                  
OAKLAND CITY   N/A       58  MM  MM MISG
OAKLAND        MOSUNNY   58  54  86 CALM      29.94R                  
SAN FRAN CITY  N/A       58  MM  74 MISG
SAN FRAN ARPT  MOSUNNY   60  51  72 CALM      29.93R                  
LIVERMORE      SUNNY     60  50  69 CALM      29.92S                  
HAYWARD        MOSUNNY   62  53  72 W5        29.93S                  
REDWOOD CITY   N/A       60  MM  77 MISG
MOFFETT ARPT   SUNNY     61  51  70 CALM      29.94S                  
SAN JOSE ARPT  MOSUNNY   59  51  75 VRB3      29.93S                  
$$

SKY/WX - Weather  TMP - Temperature  DP - Dew Point  RH - Relative Humidity
WIND - Wind Direction/Speed PRES - Barometric Pressure